Simultaneous Nadir Overpasses (SNOs) Predictions

Prediction of SNOs between GOES-16 and TERRA Satellite Orbit:

Table of predicted SNOs for the next 14.0 days since TLE Epoch: 8/30/2024
Index Date Time (GOES-16) GOES-16 Lat,Lon TERRA Lat,Lon Distance(km) Time Diff (sec)
1 09/02/2024 02:43:20 0.04, -75.20 -0.04, -75.59 43.72 80
2 09/04/2024 02:28:13 0.04, -75.22 0.88, -71.30 445.78 80
3 09/04/2024 14:45:21 -0.05, -75.24 0.13, -76.12 99.68 80
4 09/06/2024 14:30:13 -0.04, -75.26 -0.79, -71.83 391.05 80
5 09/07/2024 02:47:31 0.05, -75.26 -0.23, -76.68 161.26 80
6 09/09/2024 02:32:21 0.04, -75.29 0.63, -72.38 330.29 80
7 09/09/2024 14:49:29 -0.04, -75.31 0.36, -77.20 214.74 80
8 09/11/2024 14:34:19 -0.04, -75.34 -0.56, -72.90 277.35 80
9 09/12/2024 02:54:16 0.04, -75.33 -0.49, -77.75 274.60 80
